User: anonymous
Location: Shell Point
(30.0571°N, 84.2896°W)
Time: 21:38:38
(UTC-04:00)
Language:

Meteor 2-19 Rocket - Orbit

View from above orbital plane
View from above orbital plane
View from above satellite
View from above satellite

Ground track
Ground track

The orbit data is extracted from the following two-line orbital elements,

1 20671U 90057B   14259.68951426  .00000042  00000-0  23933-4 0   743
2 20671 082.5436 090.5617 0014065 256.4013 155.6075 13.84576219224060
Epoch (UTC): 16 September 2014 16:32:54
Eccentricity: 0.0014065
inclination: 82.5436°
perigee height: 937 km
apogee height: 958 km
right ascension of ascending node: 90.5617°
argument of perigee: 256.4013°
revolutions per day: 13.84576219
mean anomaly at epoch: 155.6075°
orbit number at epoch: 22406

The dashed part of the orbit path shows where the satellite is in the earth's shadow,  

DLR